Location: ???? ???? ?????
(31.2680°N, 31.7283°E)
Time: 09:34:55
(UTC+00:00)

COSMOS 2406 - Pass Details

Date: 13 July 2020
Orbit: 844 x 863 km, 71.0° (Epoch: 07 August)

Event Time Altitude Azimuth Distance (km) Brightness Sun altitude
Exits shadow 23:07:33 44° 30° (NNE) 1,171 4.2 -34.6°
Drops below altitude 10° 23:11:26 10° 23° (NNE) 2,504 6.5 -34.3°
Sets 23:13:54 0° 22° (NNE) 3,443 7.4 -34.1°
